Regional Weather Roundup
Issued by NWS

Home | Current Version | Previous Version | Graphics & Text | Print | Product List | Glossary On
Versions: 1 2 3 4 5 6 7 8 9 10 11 12 13 14 15 16 17 18 19 20 21 22 23 24 25 26 27 28 29 30 31 32 33 34 35 36 37 38 39 40 41 42 43 44 45 46 47 48 49 50
000
ASUS43 KLOT 012300
RWRIL

ILLINOIS REGIONAL WEATHER ROUNDUP
NATIONAL WEATHER SERVICE CHICAGO/ROMEOVILLE IL
500 PM CST SUN FEB 01 2015

NOTE: "FAIR" INDICATES FEW OR NO CLOUDS BELOW 12,000 FEET WITH NO
SIGNIFICANT WEATHER AND/OR OBSTRUCTIONS TO VISIBILITY.

* THESE STATIONS ARE NOT UNDER NWS QUALITY CONTROL. THEY ALSO MAY NOT
  REPORT WEATHER SUCH AS PRECIPITATION OR FOG.

ILZ001-002-007-009-015-016-024-020000-
NORTHWEST ILLINOIS

CITY           SKY/WX    TMP DP  RH WIND       PRES   REMARKS
MOLINE         SNOW      18  14  84 N15G30    29.84R VSB 1/2 WCI   4
STERLING*        N/A    N/A N/A N/A MISG        N/A
$$

ILZ003-004-008-010-011-017-018-020000-
NORTH CENTRAL ILLINOIS

CITY           SKY/WX    TMP DP  RH WIND       PRES   REMARKS
ROCKFORD       SNOW      19  14  81 N22G35    29.86R VSB 1/2 WCI   2
$$

ILZ005-006-012>014-019>023-020000-
NORTHEAST ILLINOIS

CITY           SKY/WX    TMP DP  RH WIND       PRES   REMARKS
CHICAGO-OHARE  HVY SNOW  21  19  92 NE24G33   29.77R VSB 1/8 WCI   4
CHICAGO-MIDWAY SNOW      24  22  91 NE18      29.75S VSB 1/2 WCI  10
AURORA         HVY SNOW  23  18  81 NE33G39   29.74R VSB 1/4 WCI   5
WAUKEGAN       HVY SNOW  21  19  92 N23G37    29.81R VSB<1/4 WCI   5
DUPAGE AIRPORT SNOW      22  19  89 NE25G32   29.75R VSB 1/2 WCI   5
WHEELING       FOG       22  19  89 NE22G31   29.81F VSB 1/4 WCI   6
NORTHERLY ISL    N/A     24  23  96 NE30        N/A  WCI   7
$$

LMZ740>746-020000-
SOUTHERN LAKE MICHIGAN

STATION/POSITION SKY/WX   TEMP    WIND        PRES    VSBY  WAVE
                          AIR SEA DIR/SP/G                  HT/PER
                          (F)     (DEG/KT/KT) (MB)    (MI)  (FT/S)
WAUKEGAN HARBOR            23      30/ 35/ 42   N/A
HARRISON CRIB              23      30/ 32/ 37   N/A
BURNHAM HARBOR             24      30/ 27/ 28   N/A
CALUMET HARBOR             24      20/ 23/ 30   N/A
MICHIGAN CITY              23      30/ 22/ 27   N/A
$$

ILZ025>027-034>036-040-047-049-050-058-095>099-020000-
WEST-CENTRAL ILLINOIS

CITY           SKY/WX    TMP DP  RH WIND       PRES   REMARKS
QUINCY         LGT SNOW  26  22  84 N25G32    29.76R FOG     WCI  11
$$

ILZ028>032-037-038-041>044-048-051>054-059>061-020000-
CENTRAL ILLINOIS

CITY           SKY/WX    TMP DP  RH WIND       PRES   REMARKS
DECATUR        CLOUDY    34  32  92 NW12      29.62R FOG     WCI  25
PEORIA         LGT SNOW  28  23  81 N14G26    29.72R WCI  17
SPRINGFIELD    LGT SNOW  34  31  88 NW14      29.66R FOG     WCI  25
TAYLORVILLE    NOT AVBL
$$

ILZ033-039-045-046-055>057-062-063-020000-
EAST-CENTRAL ILLINOIS

CITY           SKY/WX    TMP DP  RH WIND       PRES   REMARKS
CHAMPAIGN      FOG       33  32  96 W6        29.59S VSB 1/4 WCI  28
MATTOON        CLOUDY    35  32  88 W13       29.60R WCI  26
$$

ILZ079-100>102-020000-
SOUTHWEST ILLINOIS

CITY           SKY/WX    TMP DP  RH WIND       PRES   REMARKS
ALTON          CLOUDY    37  36  93 W14       29.68  WCI  29
BELLEVILLE     CLOUDY    40  39  97 NW7       29.67R
CAHOKIA*       CLOUDY    40  36  86 NW13      29.68R
$$

ILZ064>066-069>071-074>076-080>082-084>086-088>090-092>094-020000-
SOUTH-CENTRAL ILLINOIS

CITY           SKY/WX    TMP DP  RH WIND       PRES   REMARKS
CARBONDALE     CLOUDY    46  41  82 W7        29.66R
MARION         CLOUDY    46  43  87 SW12      29.66R
MT. VERNON     CLOUDY    41  36  81 W7        29.65R
$$

ILZ067-068-072-073-078-083-087-091-020000-
SOUTHEAST ILLINOIS

CITY           SKY/WX    TMP DP  RH WIND       PRES   REMARKS
LAWRENCEVILLE  CLOUDY    43  43 100 W10G21    29.62R
$$

ABBREVIATIONS USED IN REMARKS
   TC - TEMPERATURE IN CELSIUS
  WCI - WIND CHILL INDEX
   HX - HEAT INDEX
  VSB - VISIBILITY
$$



USA.gov is the U.S. government's official web portal to all federal, state and local government web resources and services.